period_start,C,m1,H,J0,J1,J2,J3,J4,J5,JA,JB,JC,JD,JJ,JK,JN,#
2014-02-13 00:00:21,0.50,16.97,0.00,22.50,27.62,30.29,6.04,28.71,1039.58,2033.26,729.05,1118.97,1210.26,349.65,331.84,32.52,0000 0000 0000 0000 000000
2014-02-13 00:01:21,0.33,16.97,0.00,22.50,27.62,30.29,6.22,28.67,1039.57,2033.42,729.02,1118.91,1210.12,350.02,331.86,32.53,0000 0000 0000 0000 000000
2014-02-13 00:02:21,0.45,16.98,0.00,22.50,27.62,30.29,6.29,28.88,1039.58,2033.32,729.00,1118.61,1210.05,350.32,332.14,32.53,0000 0000 0000 0000 000000
2014-02-13 00:03:22,0.22,16.98,0.00,22.50,27.62,30.29,6.24,28.88,1039.59,2033.22,728.99,1118.27,1210.01,349.90,331.75,32.54,0000 0000 0000 0000 000000
2014-02-13 00:04:22,0.26,16.98,0.00,22.50,27.62,30.31,6.16,28.71,1039.58,2033.17,728.83,1118.12,1210.00,350.61,332.20,32.54,0000 0000 0000 0000 000000
2014-02-13 00:05:22,0.31,16.98,0.00,22.50,27.62,30.29,6.23,28.83,1039.58,2033.17,728.49,1118.04,1210.00,350.97,332.52,32.55,0000 0000 0000 0000 000000
2014-02-13 00:06:22,0.70,16.98,0.00,22.50,27.62,30.31,6.09,28.83,1039.57,2033.20,728.22,1118.01,1209.91,350.37,332.18,32.56,0000 0000 0000 0000 000000
2014-02-13 00:07:22,0.63,16.99,0.00,22.50,27.62,30.33,6.23,28.63,1039.57,2033.20,728.09,1118.00,1209.67,350.38,332.20,32.56,0000 0000 0000 0000 000000
2014-02-13 00:08:23,0.32,16.99,0.00,22.50,27.62,30.31,6.29,28.71,1039.57,2033.18,728.03,1117.99,1209.32,350.47,332.30,32.57,0000 0000 0000 0000 000000
2014-02-13 00:09:23,0.30,16.99,0.00,22.49,27.62,30.33,6.23,28.75,1039.58,2033.21,728.01,1117.98,1209.12,350.25,332.31,32.57,0000 0000 0000 0000 000000
2014-02-13 00:10:23,0.20,16.99,0.00,22.49,27.62,30.34,6.17,28.58,1039.57,2033.14,727.99,1117.83,1209.04,349.06,330.96,32.58,0000 0000 0000 0000 000000
2014-02-13 00:11:23,0.09,16.99,0.00,22.50,27.62,30.31,6.17,28.83,1039.57,2033.13,727.99,1117.54,1209.01,349.61,331.78,32.58,0000 0000 0000 0000 000000
2014-02-13 00:12:24,0.32,17.00,0.00,22.50,27.62,30.32,6.20,28.71,1039.57,2033.10,727.98,1117.25,1209.00,350.24,331.70,32.59,0000 0000 0000 0000 000000
2014-02-13 00:13:24,0.31,17.00,0.00,22.50,27.62,30.33,6.17,28.58,1039.57,2033.06,727.98,1117.11,1208.99,350.17,331.85,32.60,0000 0000 0000 0000 000000
2014-02-13 00:14:24,0.06,17.00,0.00,22.50,27.62,30.35,6.13,28.50,1039.57,2033.06,727.95,1117.05,1208.95,349.90,331.75,32.60,0000 0000 0000 0000 000000
2014-02-13 00:15:24,0.21,17.00,0.00,22.51,27.62,30.32,6.05,28.54,1039.57,2033.09,727.66,1117.02,1208.67,349.86,332.31,32.61,0000 0000 0000 0000 000000
2014-02-13 00:16:25,0.64,17.00,0.00,22.50,27.62,30.29,6.04,28.67,1039.57,2033.05,727.31,1117.00,1208.31,349.36,331.61,32.61,0000 0000 0000 0000 000000
2014-02-13 00:17:25,0.80,17.01,0.00,22.49,27.62,30.32,6.08,28.54,1039.57,2033.06,727.13,1117.00,1208.13,349.86,331.50,32.62,0000 0000 0000 0000 000000
2014-02-13 00:18:25,0.45,17.01,0.00,22.51,27.62,30.30,6.21,28.63,1039.57,2033.06,727.04,1116.98,1208.05,350.21,332.03,32.63,0000 0000 0000 0000 000000
2014-02-13 00:19:26,0.20,17.01,0.00,22.52,27.62,30.32,6.13,28.50,1039.57,2033.09,727.01,1116.97,1208.02,349.73,331.57,32.63,0000 0000 0000 0000 000000
2014-02-13 00:20:26,0.11,17.01,0.00,22.50,27.62,30.35,6.13,28.46,1039.57,2033.11,727.00,1116.91,1208.00,350.04,331.79,32.64,0000 0000 0000 0000 000000
2014-02-13 00:21:26,0.16,17.01,0.00,22.51,27.62,30.36,6.17,28.63,1039.57,2033.10,726.91,1116.70,1208.00,349.63,331.48,32.64,0000 0000 0000 0000 000000
2014-02-13 00:22:26,0.37,17.01,0.00,22.50,27.62,30.35,6.13,28.71,1039.57,2033.14,726.63,1116.38,1208.00,350.49,332.31,32.65,0000 0000 0000 0000 000000
2014-02-13 00:23:27,0.79,17.02,0.00,22.51,27.62,30.34,5.98,28.58,1039.57,2033.08,726.28,1116.16,1207.95,348.76,330.69,32.66,0000 0000 0000 0000 000000
2014-02-13 00:24:27,0.82,17.02,0.00,22.52,27.62,30.33,6.06,28.67,1039.57,2033.10,726.12,1116.06,1207.73,349.78,331.72,32.66,0000 0000 0000 0000 000000
2014-02-13 00:25:27,0.56,17.03,0.00,22.51,27.62,30.34,6.17,28.63,1039.57,2033.07,726.04,1116.02,1207.37,349.98,331.81,32.67,0000 0000 0000 0000 000000
2014-02-13 00:26:27,0.31,17.03,0.00,22.50,27.62,30.31,6.14,28.50,1039.57,2033.04,726.01,1116.00,1207.13,350.21,332.04,32.67,0000 0000 0000 0000 000000
2014-02-13 00:27:28,0.16,17.03,0.00,22.50,27.62,30.33,6.14,28.71,1039.57,2033.04,725.99,1115.99,1207.05,350.70,332.51,32.68,0000 0000 0000 0000 000000
2014-02-13 00:28:28,0.10,17.03,0.00,22.51,27.62,30.34,6.22,28.58,1039.57,2033.02,725.93,1115.99,1207.02,350.67,332.46,32.68,0000 0000 0000 0000 000000
2014-02-13 00:29:28,0.13,17.03,0.00,22.52,27.62,30.35,6.27,28.92,1039.57,2033.04,725.67,1115.97,1207.00,349.94,331.76,32.69,0000 0000 0000 0000 000000
2014-02-13 00:30:28,0.47,17.03,0.00,22.50,27.62,30.34,6.14,29.21,1039.57,2033.03,725.35,1115.86,1206.99,350.52,332.37,32.70,0000 0000 0000 0000 000000
2014-02-13 00:31:28,0.59,17.04,0.00,22.50,27.62,30.34,6.18,29.00,1039.57,2033.02,725.15,1115.50,1206.97,349.63,331.49,32.70,0000 0000 0000 0000 000000
2014-02-13 00:32:29,0.79,17.04,0.00,22.50,27.62,30.32,6.13,28.75,1039.57,2033.03,725.05,1115.26,1206.79,349.67,331.53,32.71,0000 0000 0000 0000 000000
2014-02-13 00:33:29,0.56,17.05,0.00,22.50,27.62,30.34,6.01,28.63,1039.57,2033.05,725.02,1115.13,1206.41,349.64,331.50,32.71,0000 0000 0000 0000 000000
2014-02-13 00:34:29,0.47,17.05,0.00,22.52,27.62,30.32,6.30,28.63,1039.57,2033.08,725.00,1115.06,1206.22,350.81,332.59,32.72,0000 0000 0000 0000 000000
2014-02-13 00:35:29,0.25,17.05,0.00,22.50,27.62,30.28,6.16,28.79,1039.57,2033.07,724.96,1115.02,1206.10,349.98,331.96,32.73,0000 0000 0000 0000 000000
2014-02-13 00:36:30,0.15,17.05,0.00,22.50,27.62,30.32,6.21,28.75,1039.57,2033.05,724.88,1115.00,1206.04,349.35,331.23,32.73,0000 0000 0000 0000 000000
2014-02-13 00:37:30,0.21,17.05,0.00,22.50,27.62,30.39,6.21,28.67,1039.57,2033.06,724.55,1115.00,1206.01,349.64,331.51,32.74,0000 0000 0000 0000 000000
2014-02-13 00:38:30,0.57,17.06,0.00,22.51,27.62,30.35,6.25,28.83,1039.60,2033.05,724.22,1114.98,1206.00,350.30,332.33,32.74,0000 0000 0000 0000 000000
2014-02-13 00:39:31,0.51,17.06,0.00,22.51,27.62,30.35,6.35,28.71,1039.61,2033.02,724.10,1114.97,1205.99,350.62,332.48,32.75,0000 0000 0000 0000 000000
2014-02-13 00:40:31,0.23,17.06,0.00,22.50,27.62,30.30,5.92,28.67,1039.72,2033.02,724.03,1114.76,1205.96,348.99,331.25,32.75,0000 0000 0000 0000 000000
2014-02-13 00:41:31,0.34,17.06,0.00,22.50,27.62,30.32,5.98,28.58,1039.71,2033.03,724.01,1114.44,1205.87,349.00,331.08,32.76,0000 0000 0000 0000 000000
2014-02-13 00:42:32,0.46,17.06,0.00,22.50,27.62,30.34,6.04,28.75,1039.66,2033.03,723.99,1114.23,1205.54,349.51,331.48,32.77,0000 0000 0000 0000 000000
2014-02-13 00:43:32,0.44,17.07,0.00,22.49,27.62,30.31,6.21,28.71,1039.60,2033.02,723.98,1114.10,1205.23,350.08,331.80,32.77,0000 0000 0000 0000 000000
2014-02-13 00:44:32,0.33,17.07,0.00,22.49,27.62,30.30,6.11,28.58,1039.60,2033.02,723.86,1114.04,1205.11,350.41,331.88,32.78,0000 0000 0000 0000 000000
2014-02-13 00:45:32,0.37,17.07,0.00,22.49,27.62,30.31,6.10,28.67,1039.60,2033.02,723.48,1114.01,1205.04,349.39,331.28,32.78,0000 0000 0000 0000 000000
2014-02-13 00:46:33,0.68,17.08,0.00,22.50,27.62,30.29,6.03,28.50,1039.61,2033.05,723.20,1114.00,1205.01,349.37,331.26,32.79,0000 0000 0000 0000 000000
2014-02-13 00:47:33,0.51,17.08,0.00,22.49,27.62,30.31,6.20,28.79,1039.57,2033.05,723.09,1114.00,1205.00,350.20,332.10,32.80,0000 0000 0000 0000 000000
2014-02-13 00:48:33,0.20,17.08,0.00,22.50,27.62,30.33,6.07,28.75,1039.58,2033.04,723.03,1113.99,1204.99,349.54,331.11,32.80,0000 0000 0000 0000 000000
2014-02-13 00:49:33,0.09,17.08,0.00,22.50,27.62,30.36,6.26,28.75,1039.58,2033.04,723.01,1113.98,1204.97,350.67,332.20,32.81,0000 0000 0000 0000 000000
2014-02-13 00:50:34,0.06,17.08,0.00,22.50,27.62,30.32,6.03,28.33,1039.58,2033.03,723.00,1113.92,1204.91,350.27,332.03,32.81,0000 0000 0000 0000 000000
2014-02-13 00:51:34,0.13,17.08,0.00,22.49,27.62,30.34,6.15,28.46,1039.57,2033.03,722.97,1113.68,1204.65,348.89,330.80,32.82,0000 0000 0000 0000 000000
2014-02-13 00:52:34,0.40,17.08,0.00,22.49,27.62,30.34,6.20,28.58,1039.58,2033.03,722.96,1113.37,1204.35,349.66,331.53,32.83,0000 0000 0000 0000 000000
2014-02-13 00:53:34,0.68,17.09,0.00,22.49,27.62,30.31,6.17,28.42,1039.60,2033.03,722.72,1113.18,1204.16,350.14,332.22,32.83,0000 0000 0000 0000 000000
2014-02-13 00:54:35,0.69,17.09,0.00,22.49,27.62,30.27,6.20,28.50,1039.58,2033.04,722.35,1113.08,1204.06,349.96,332.19,32.84,0000 0000 0000 0000 000000
2014-02-13 00:55:35,0.71,17.10,0.00,22.49,27.62,30.29,6.20,28.54,1039.58,2033.06,722.14,1113.03,1204.02,349.96,331.68,32.84,0000 0000 0000 0000 000000
2014-02-13 00:56:35,0.47,17.10,0.00,22.49,27.62,30.32,6.23,28.58,1039.57,2033.03,722.05,1113.01,1204.00,349.66,331.40,32.85,0000 0000 0000 0000 000000
2014-02-13 00:57:35,0.15,17.10,0.00,22.49,27.62,30.29,6.23,28.58,1039.57,2033.03,722.01,1113.00,1204.00,350.38,332.21,32.85,0000 0000 0000 0000 000000
2014-02-13 00:58:36,0.05,17.10,0.00,22.49,27.62,30.32,6.14,28.29,1039.57,2033.04,721.98,1112.99,1204.00,350.12,332.06,32.86,0000 0000 0000 0000 000000
2014-02-13 00:59:36,0.09,17.10,0.00,22.49,27.62,30.34,6.05,28.38,1039.57,2033.06,721.93,1112.98,1203.95,350.53,332.43,32.87,0000 0000 0000 0000 000000
2014-02-13 01:00:36,0.24,17.10,0.00,22.49,27.62,30.33,6.07,28.46,1039.57,2033.04,721.59,1112.95,1203.81,348.84,330.90,32.87,0000 0000 0000 0000 000000
2014-02-13 01:01:36,0.62,17.10,0.00,22.49,27.62,30.31,6.00,28.58,1039.57,2033.03,721.26,1112.80,1203.50,349.47,331.13,32.88,0000 0000 0000 0000 000000
2014-02-13 01:02:36,0.87,17.11,0.00,22.49,27.62,30.30,6.09,28.54,1039.57,2033.02,721.09,1112.48,1203.24,349.90,331.75,32.88,0000 0000 0000 0000 000000
2014-02-13 01:03:37,0.74,17.11,0.00,22.49,27.62,30.32,6.04,28.42,1039.57,2033.01,721.03,1112.22,1203.09,349.95,331.80,32.89,0000 0000 0000 0000 000000
2014-02-13 01:04:37,0.48,17.12,0.00,22.50,27.62,30.31,6.11,28.63,1039.57,2033.01,721.01,1112.11,1203.03,349.90,331.35,32.90,0000 0000 0000 0000 000000
2014-02-13 01:05:37,0.22,17.12,0.00,22.50,27.62,30.34,6.20,28.33,1039.57,2033.01,721.00,1112.04,1203.01,350.16,331.93,32.90,0000 0000 0000 0000 000000
2014-02-13 01:06:37,0.11,17.12,0.00,22.49,27.62,30.34,6.07,28.46,1039.57,2033.01,720.97,1112.01,1203.00,349.71,331.57,32.91,0000 0000 0000 0000 000000
2014-02-13 01:07:38,0.12,17.12,0.00,22.51,27.62,30.32,6.21,28.50,1039.57,2033.00,720.70,1112.00,1202.99,349.57,331.43,32.91,0000 0000 0000 0000 000000
2014-02-13 01:08:38,0.42,17.12,0.00,22.50,27.62,30.34,6.00,28.50,1039.54,2033.01,720.33,1112.00,1202.95,349.41,331.47,32.92,0000 0000 0000 0000 000000
2014-02-13 01:09:38,0.63,17.13,0.00,22.50,27.62,30.34,6.13,28.54,1039.50,2033.00,720.16,1111.99,1202.91,349.26,331.11,32.92,0000 0000 0000 0000 000000
2014-02-13 01:10:39,0.34,17.13,0.00,22.51,27.62,30.29,6.02,28.46,1039.48,2033.00,720.08,1111.98,1202.61,348.85,330.71,32.93,0000 0000 0000 0000 000000
2014-02-13 01:11:39,0.32,17.13,0.00,22.50,27.62,30.30,6.11,28.63,1039.43,2033.01,720.02,1111.87,1202.29,349.62,331.55,32.94,0000 0000 0000 0000 000000
2014-02-13 01:12:39,0.42,17.14,0.00,22.50,27.62,30.34,6.17,28.83,1039.36,2033.02,720.01,1111.62,1202.13,350.13,331.56,32.94,0000 0000 0000 0000 000000
2014-02-13 01:13:40,0.37,17.14,0.00,22.50,27.62,30.35,6.05,28.58,1039.40,2033.01,720.00,1111.29,1202.06,349.18,331.38,32.95,0000 0000 0000 0000 000000
2014-02-13 01:14:40,0.39,17.14,0.00,22.49,27.62,30.34,6.12,28.50,1039.49,2033.00,719.96,1111.12,1202.02,349.61,331.67,32.95,0000 0000 0000 0000 000000
2014-02-13 01:15:40,0.27,17.14,0.00,22.49,27.62,30.31,6.09,28.50,1039.50,2033.01,719.85,1111.06,1202.00,350.30,332.11,32.96,0000 0000 0000 0000 000000
2014-02-13 01:16:40,0.36,17.14,0.00,22.50,27.62,30.28,6.00,28.50,1039.53,2033.01,719.49,1111.02,1202.00,349.03,330.89,32.97,0000 0000 0000 0000 000000
2014-02-13 01:17:41,0.58,17.15,0.00,22.50,27.62,30.30,6.12,28.50,1039.49,2033.02,719.19,1111.01,1201.98,350.02,331.71,32.97,0000 0000 0000 0000 000000
2014-02-13 01:18:41,0.50,17.15,0.00,22.50,27.62,30.29,6.30,28.46,1039.47,2033.01,719.07,1111.00,1201.96,350.40,331.92,32.98,0000 0000 0000 0000 000000
2014-02-13 01:19:41,0.21,17.15,0.00,22.50,27.62,30.32,6.19,28.63,1039.39,2033.01,719.02,1110.99,1201.89,350.47,332.24,32.98,0000 0000 0000 0000 000000
2014-02-13 01:20:41,0.16,17.15,0.00,22.50,27.62,30.34,6.09,28.46,1039.34,2033.02,719.00,1110.97,1201.65,350.91,332.61,32.99,0000 0000 0000 0000 000000
2014-02-13 01:21:42,0.21,17.15,0.00,22.50,27.63,30.33,6.27,28.54,1039.35,2033.01,718.98,1110.94,1201.30,350.50,332.46,32.99,0000 0000 0000 0000 000000
2014-02-13 01:22:42,0.29,17.15,0.00,22.50,27.63,30.34,6.23,28.58,1039.39,2033.02,718.77,1110.72,1201.15,350.35,332.03,33.00,0000 0000 0000 0000 000000
2014-02-13 01:23:42,0.81,17.16,0.00,22.50,27.63,30.32,6.17,28.58,1039.40,2033.03,718.37,1110.35,1201.05,349.52,331.33,33.01,0000 0000 0000 0000 000000
2014-02-13 01:24:43,1.05,17.17,0.00,22.50,27.64,30.33,6.17,28.50,1039.34,2033.04,718.15,1110.14,1201.02,350.30,332.05,33.01,0000 0000 0000 0000 000000
2014-02-13 01:25:43,0.60,17.17,0.00,22.50,27.64,30.31,6.14,28.71,1039.31,2033.04,718.06,1110.08,1201.00,350.01,331.87,33.02,0000 0000 0000 0000 000000
2014-02-13 01:26:43,0.22,17.17,0.00,22.50,27.65,30.36,6.19,28.88,1039.24,2033.02,718.02,1110.04,1200.99,350.44,331.82,33.02,0000 0000 0000 0000 000000
2014-02-13 01:27:43,0.09,17.17,0.00,22.51,27.65,30.38,6.04,28.42,1039.16,2033.02,718.00,1110.01,1200.98,349.31,331.04,33.03,0000 0000 0000 0000 000000
2014-02-13 01:28:44,0.07,17.17,0.00,22.52,27.65,30.34,6.07,28.75,1039.11,2033.04,717.97,1110.00,1200.96,349.17,330.89,33.04,0000 0000 0000 0000 000000
2014-02-13 01:29:44,0.06,17.17,0.00,22.52,27.65,30.29,6.13,28.88,1039.10,2033.02,717.91,1109.98,1200.72,348.73,330.46,33.04,0000 0000 0000 0000 000000
2014-02-13 01:30:44,0.38,17.18,0.00,22.52,27.65,30.29,6.05,28.75,1039.12,2033.00,717.49,1109.97,1200.37,349.61,331.51,33.05,0000 0000 0000 0000 000000
2014-02-13 01:31:44,0.80,17.18,0.00,22.52,27.65,30.29,6.22,28.63,1039.10,2033.01,717.21,1109.88,1200.17,350.28,332.03,33.05,0000 0000 0000 0000 000000
2014-02-13 01:32:45,0.74,17.18,0.00,22.52,27.65,30.31,6.08,28.54,1039.11,2033.01,717.09,1109.70,1200.08,349.83,331.16,33.06,0000 0000 0000 0000 000000
2014-02-13 01:33:45,0.50,17.18,0.00,22.52,27.65,30.35,6.11,28.58,1039.12,2033.02,717.05,1109.36,1200.02,349.57,331.44,33.07,0000 0000 0000 0000 000000
2014-02-13 01:34:45,0.41,17.19,0.00,22.52,27.65,30.37,6.35,28.75,1039.13,2033.03,717.02,1109.16,1200.01,350.78,332.41,33.07,0000 0000 0000 0000 000000
2014-02-13 01:35:45,0.30,17.19,0.00,22.52,27.65,30.36,6.32,28.58,1039.16,2033.03,717.00,1109.06,1200.00,350.01,332.07,33.08,0000 0000 0000 0000 000000
2014-02-13 01:36:46,0.16,17.19,0.00,22.52,27.65,30.33,6.23,28.71,1039.24,2033.02,716.87,1109.02,1199.98,350.72,332.22,33.08,0000 0000 0000 0000 000000
2014-02-13 01:37:46,0.35,17.19,0.00,22.52,27.65,30.36,6.17,28.71,1039.33,2033.00,716.46,1109.00,1199.92,349.98,331.73,33.09,0000 0000 0000 0000 000000
2014-02-13 01:38:46,0.61,17.20,0.00,22.52,27.65,30.37,6.08,28.67,1039.43,2033.00,716.23,1109.00,1199.63,349.44,331.41,33.09,0000 0000 0000 0000 000000
2014-02-13 01:39:46,0.60,17.20,0.00,22.52,27.65,30.40,6.16,28.67,1039.43,2033.00,716.08,1108.98,1199.29,350.18,332.12,33.10,0000 0000 0000 0000 000000
2014-02-13 01:40:47,0.47,17.20,0.00,22.52,27.65,30.37,6.27,29.04,1039.41,2033.00,716.03,1108.95,1199.13,349.54,331.33,33.11,0000 0000 0000 0000 000000
2014-02-13 01:41:47,0.23,17.20,0.00,22.52,27.65,30.38,6.23,28.83,1039.48,2033.00,716.01,1108.79,1199.05,349.92,331.71,33.11,0000 0000 0000 0000 000000
2014-02-13 01:42:47,0.27,17.21,0.00,22.52,27.65,30.36,6.15,28.75,1039.41,2033.00,715.99,1108.44,1199.02,350.20,331.96,33.12,0000 0000 0000 0000 000000
2014-02-13 01:43:48,0.39,17.21,0.00,22.52,27.65,30.40,6.06,28.63,1039.39,2033.00,715.98,1108.19,1199.00,350.17,331.93,33.12,0000 0000 0000 0000 000000
2014-02-13 01:44:48,0.33,17.21,0.00,22.52,27.65,30.41,6.17,28.71,1039.38,2033.00,715.89,1108.08,1198.96,350.02,331.77,33.13,0000 0000 0000 0000 000000
2014-02-13 01:45:48,0.30,17.21,0.00,22.52,27.66,30.43,6.06,28.58,1039.24,2033.00,715.61,1108.02,1198.91,349.43,331.17,33.14,0000 0000 0000 0000 000000
2014-02-13 01:46:48,0.56,17.22,0.00,22.52,27.66,30.40,6.08,28.83,1039.27,2033.00,715.27,1108.00,1198.55,349.90,331.62,33.14,0000 0000 0000 0000 000200
2014-02-13 01:47:49,0.79,11.48,0.00,22.53,27.67,30.40,2.05,8.29,1039.23,2036.50,2152.02,2221.44,2411.19,124.08,117.40,0.00,0000 0000 0000 0000 000002
2014-02-13 01:48:49,0.79,0.00,0.00,22.53,27.67,30.40,6.28,30.50,1039.23,2040.00,3586.53,3334.24,3623.77,349.95,331.64,0.00,0000 0000 0000 0000 000002
2014-02-13 01:49:49,0.79,0.00,0.00,22.54,27.67,30.37,6.00,30.38,1039.22,2040.00,3584.23,3333.28,3622.65,349.37,331.09,0.01,0000 0000 0000 0000 000002
2014-02-13 01:50:49,0.79,0.00,0.00,22.54,27.67,30.40,6.19,30.17,1039.18,2040.00,3582.13,3332.21,3621.26,350.57,332.22,0.01,0000 0000 0000 0000 000002
2014-02-13 01:51:50,0.79,0.00,0.00,22.53,27.67,30.39,6.20,30.38,1039.20,2040.00,3579.79,3330.84,3619.61,349.95,331.64,0.00,0000 0000 0000 0000 000000
2014-02-13 01:52:50,0.79,0.00,0.00,22.54,27.67,30.34,6.13,30.29,1039.19,2040.00,3577.63,3329.54,3618.00,350.02,331.96,0.01,0000 0000 0000 0000 000000
2014-02-13 01:53:50,0.80,0.00,0.00,22.54,27.67,30.33,6.22,30.58,1039.17,2039.98,3575.64,3328.31,3616.45,349.57,331.26,0.01,0000 0000 0000 0000 000000
2014-02-13 01:54:50,0.80,0.01,0.00,22.54,27.67,30.35,6.11,30.50,1039.18,2039.99,3573.88,3327.21,3615.00,349.64,331.34,0.02,0000 0000 0000 0000 000000
2014-02-13 01:55:51,0.80,0.01,0.00,22.53,27.67,30.36,6.19,30.29,1039.12,2039.99,3572.24,3326.18,3613.77,350.13,331.79,0.02,0000 0000 0000 0000 000000
2014-02-13 01:56:51,0.79,0.01,0.00,22.54,27.67,30.40,6.32,30.46,1039.11,2039.99,3570.63,3325.16,3612.64,350.40,332.03,0.03,0000 0000 0000 0000 000000
2014-02-13 01:57:52,0.79,0.02,0.00,22.54,27.67,30.40,6.15,30.67,1039.12,2039.99,3569.12,3324.24,3611.52,350.04,331.91,0.04,0000 0000 0000 0000 000000
2014-02-13 01:58:52,0.78,0.02,0.00,22.53,27.67,30.40,6.10,30.50,1039.17,2039.98,3567.65,3323.26,3610.36,349.64,331.34,0.04,0000 0000 0000 0000 000000
2014-02-13 01:59:52,0.77,0.02,0.00,22.52,27.67,30.38,6.01,30.33,1039.24,2039.96,3566.22,3322.29,3609.34,349.44,331.18,0.05,0000 0000 0000 0000 000000
2014-02-13 02:00:53,0.76,0.03,1.00,22.53,27.67,30.37,6.29,30.38,1039.27,2039.97,3564.91,3321.43,3608.41,350.29,332.09,0.05,0000 0000 0000 0000 000000
2014-02-13 02:01:53,0.75,0.03,1.00,22.54,27.67,30.40,6.20,30.54,1039.30,2039.99,3563.68,3320.62,3607.49,349.81,331.53,0.06,0000 0000 0000 0000 000000
2014-02-13 02:02:53,0.74,0.03,1.00,22.54,27.67,30.36,6.19,30.38,1039.39,2039.98,3562.47,3319.82,3606.56,350.19,331.91,0.07,0000 0000 0000 0000 000000
2014-02-13 02:03:53,0.72,0.03,1.00,22.54,27.67,30.35,6.16,30.42,1039.43,2039.96,3561.24,3318.95,3605.57,350.06,331.63,0.07,0000 0000 0000 0000 000000
2014-02-13 02:04:54,0.71,0.04,1.00,22.54,27.67,30.35,6.23,30.29,1039.35,2039.97,3560.02,3318.13,3604.61,350.29,332.19,0.08,0000 0000 0000 0000 000000
2014-02-13 02:05:54,0.69,0.04,1.00,22.54,27.67,30.34,6.22,30.54,1039.36,2039.97,3558.79,3317.28,3603.66,350.29,331.99,0.08,0000 0000 0000 0000 000000
2014-02-13 02:06:54,0.67,0.04,1.00,22.54,27.67,30.37,6.21,30.33,1039.37,2039.98,3557.59,3316.47,3602.72,349.95,331.68,0.09,0000 0000 0000 0000 000000
2014-02-13 02:07:55,0.64,0.04,1.00,22.54,27.67,30.40,6.19,30.29,1039.37,2039.97,3556.35,3315.62,3601.74,350.23,331.94,0.09,0000 0000 0000 0000 000000
2014-02-13 02:08:55,0.63,0.05,1.00,22.55,27.67,30.38,6.18,30.54,1039.38,2039.97,3555.09,3314.75,3600.74,349.98,331.42,0.10,0000 0000 0000 0000 000000
2014-02-13 02:09:55,0.61,0.05,1.00,22.55,27.67,30.39,6.13,30.38,1039.31,2039.98,3553.83,3313.84,3599.76,350.64,331.94,0.11,0000 0000 0000 0000 000000
2014-02-13 02:10:55,0.59,0.05,1.00,22.55,27.67,30.40,6.30,30.54,1039.23,2039.98,3552.62,3312.99,3598.74,350.17,331.85,0.11,0000 0000 0000 0000 000000
2014-02-13 02:11:56,0.57,0.06,1.00,22.54,27.67,30.42,6.20,30.50,1039.28,2039.99,3551.45,3312.23,3597.83,349.58,331.31,0.12,0000 0000 0000 0000 000000
2014-02-13 02:12:56,0.55,0.06,1.00,22.55,27.67,30.38,6.18,30.33,1039.42,2039.99,3550.28,3311.44,3596.97,349.23,331.01,0.12,0000 0000 0000 0000 000000
2014-02-13 02:13:56,0.52,0.06,1.00,22.56,27.67,30.38,5.98,30.42,1039.54,2039.99,3549.09,3310.62,3595.98,349.64,331.42,0.13,0000 0000 0000 0000 000000
2014-02-13 02:14:56,0.50,0.06,1.00,22.57,27.67,30.40,6.08,30.38,1039.54,2039.97,3547.63,3309.59,3594.77,349.20,331.00,0.14,0000 0000 0000 0000 000000
2014-02-13 02:15:57,0.55,0.07,1.00,22.55,27.67,30.47,6.13,30.50,1039.38,2039.96,3545.65,3308.23,3593.15,349.30,331.07,0.14,0000 0000 0000 0000 000000
2014-02-13 02:16:57,0.61,0.07,1.00,22.55,27.67,30.41,6.13,30.33,1039.42,2039.97,3543.74,3306.89,3591.59,349.56,331.45,0.15,0000 0000 0000 0000 000000
2014-02-13 02:17:57,0.66,0.08,1.00,22.55,27.67,30.43,6.11,30.29,1039.48,2039.96,3541.95,3305.67,3590.14,349.54,331.33,0.15,0000 0000 0000 0000 000000
2014-02-13 02:18:57,0.65,0.08,1.00,22.55,27.67,30.41,6.15,30.29,1039.48,2039.98,3540.53,3304.67,3589.03,349.93,331.70,0.16,0000 0000 0000 0000 000000
2014-02-13 02:19:58,0.59,0.08,1.00,22.55,27.68,30.39,6.22,30.29,1039.53,2039.97,3539.30,3303.81,3588.13,350.40,332.15,0.16,0000 0000 0000 0000 000000
2014-02-13 02:20:58,0.51,0.08,1.00,22.57,27.67,30.39,6.16,30.46,1039.54,2039.97,3538.13,3302.97,3587.20,350.36,332.10,0.17,0000 0000 0000 0000 000000
2014-02-13 02:21:58,0.47,0.09,1.00,22.57,27.68,30.41,6.14,30.46,1039.54,2039.97,3536.92,3302.14,3586.25,350.02,331.63,0.18,0000 0000 0000 0000 000000
2014-02-13 02:22:58,0.47,0.09,1.00,22.57,27.68,30.35,6.10,30.42,1039.55,2039.93,3535.71,3301.31,3585.28,349.64,331.42,0.18,0000 0000 0000 0000 000000
2014-02-13 02:23:59,0.44,0.09,1.00,22.57,27.68,30.34,6.03,30.33,1039.55,2039.95,3534.49,3300.47,3584.38,349.35,331.17,0.19,0000 0000 0000 0000 000000
2014-02-13 02:24:59,0.45,0.09,1.00,22.57,27.68,30.35,6.13,30.21,1039.54,2039.96,3533.29,3299.63,3583.52,350.45,332.18,0.19,0000 0000 0000 0000 000000
2014-02-13 02:25:59,0.42,0.10,1.00,22.57,27.69,30.40,6.13,30.29,1039.56,2039.96,3532.14,3298.83,3582.67,350.29,332.03,0.20,0000 0000 0000 0000 000000
2014-02-13 02:26:59,0.41,0.10,1.00,22.57,27.69,30.34,6.27,30.38,1039.52,2039.92,3530.86,3297.96,3581.81,350.50,331.95,0.21,0000 0000 0000 0000 000000
2014-02-13 02:28:00,0.44,0.10,1.00,22.57,27.69,30.32,6.22,30.50,1039.51,2039.94,3529.62,3297.08,3580.89,350.53,331.56,0.21,0000 0000 0000 0000 000000
2014-02-13 02:29:00,0.49,0.11,1.00,22.57,27.69,30.31,6.11,30.63,1039.45,2039.93,3528.44,3296.21,3579.92,348.94,330.93,0.22,0000 0000 0000 0000 000000
2014-02-13 02:30:00,0.46,0.11,1.00,22.57,27.69,30.29,6.11,30.63,1039.42,2039.90,3527.21,3295.33,3578.96,349.54,331.87,0.22,0000 0000 0000 0000 000000
2014-02-13 02:31:00,0.42,0.11,1.00,22.57,27.69,30.33,6.11,30.67,1039.35,2039.85,3525.98,3294.45,3578.01,350.25,331.93,0.23,0000 0000 0000 0000 000000
2014-02-13 02:32:01,0.41,0.11,1.00,22.58,27.69,30.40,6.25,30.50,1039.24,2039.85,3524.78,3293.61,3577.10,349.79,331.44,0.24,0000 0000 0000 0000 000000
2014-02-13 02:33:01,0.44,0.12,1.00,22.59,27.70,30.37,6.22,30.29,1039.26,2039.85,3523.59,3292.83,3576.25,350.05,331.77,0.24,0000 0000 0000 0000 000000
2014-02-13 02:34:01,0.42,0.12,1.00,22.59,27.70,30.32,6.13,30.25,1039.15,2039.77,3522.40,3291.93,3575.29,350.53,332.11,0.25,0000 0000 0000 0000 000000
2014-02-13 02:35:01,0.39,0.12,1.00,22.59,27.70,30.32,6.16,30.38,1039.12,2039.76,3521.29,3291.17,3574.41,349.98,331.57,0.25,0000 0000 0000 0000 000000
2014-02-13 02:36:02,0.42,0.12,1.00,22.59,27.70,30.31,5.98,30.21,1039.10,2039.87,3520.22,3290.38,3573.54,349.40,331.02,0.26,0000 0000 0000 0000 000000